Regional Weather Roundup
Issued by NWS

Home | Current Version | Previous Version | Text Only | Print | Product List | Glossary Off
Versions: 1 2 3 4 5 6 7 8 9 10 11 12 13 14 15 16 17 18 19 20 21 22 23 24 25 26 27 28 29 30 31 32 33 34 35 36 37 38 39 40 41 42 43 44 45 46 47 48 49 50

000
ASUS43 KMKX 291359
RWRWI

WISCONSIN REGIONAL WEATHER ROUNDUP
NATIONAL WEATHER SERVICE MILWAUKEE/SULLIVAN WI
800 AM CST THU JAN 29 2015

NOTE: "FAIR" INDICATES FEW OR NO CLOUDS BELOW 12,000 FEET WITH NO
SIGNIFICANT WEATHER AND/OR OBSTRUCTIONS TO VISIBILITY.

WIZ001-002-006>008-014>016-023>028-291500-
NORTHWEST WISCONSIN

CITY           SKY/WX    TMP DP  RH WIND       PRES   REMARKS
SUPERIOR ARPT  CLOUDY    30  23  74 N18G29    30.05R WCI  18
ASHLAND        CLOUDY    30  23  75 NW15      30.00R WCI  19
HAYWARD        CLOUDY    29  23  78 N7        29.99R WCI  22
SIREN          CLOUDY    31  25  77 NW10      30.04R WCI  22
CUMBERLAND     CLOUDY    30  27  86 NW18G24   29.99R WCI  18
RICE LAKE      CLOUDY    31  26  81 NW10G21   30.01R WCI  22
CHETEK         CLOUDY    31  26  81 NW10G25   29.99R WCI  22
LADYSMITH      CLOUDY    30  26  82 NW16G31   29.96R WCI  19
EAU CLAIRE     CLOUDY    32  25  75 NW17G25   29.99R WCI  21
MENOMONIE      CLOUDY    33  28  80 NW20G30   30.00R WCI  21
NEW RICHMOND   CLOUDY    31  29  92 N15G22    30.04R WCI  20
OSCEOLA        CLOUDY    32  30  93 N15G21    30.08R WCI  22
$$

WIZ003>005-009-010-017-018-291500-
NORTH CENTRAL WISCONSIN

CITY           SKY/WX    TMP DP  RH WIND       PRES   REMARKS
MANITOWISH WTR CLOUDY    26  23  86 NW16G28   29.87R WCI  14
ARBOR VITAE    CLOUDY    29  25  85 N16G24    29.86R WCI  18
WOODRUFF       CLOUDY    29  25  85 N16G24    29.86R WCI  18
RHINELANDER    CLOUDY    27  23  85 N13G23    29.86R WCI  16
EAGLE RIVER    CLOUDY    27  23  84 N18G32    29.84R WCI  14
LAND O LAKES   CLOUDY    28  24  86 NW13G26   29.84R WCI  17
PHILLIPS       CLOUDY    28  24  86 N15G23    29.89R WCI  16
TOMAHAWK       CLOUDY    28  24  84 NW12G22   29.87R WCI  18
MEDFORD        CLOUDY    28  26  90 NW17      29.89R FOG     WCI  16
MERRILL        CLOUDY    29  26  88 N16       29.87R WCI  17
$$

WIZ029-030-035-036-043>047-291500-
CENTRAL WISCONSIN

CITY           SKY/WX    TMP DP  RH WIND       PRES   REMARKS
WAUSAU         CLOUDY    29  25  85 NW14G21   29.87R WCI  18
MOSINEE        NOT AVBL
MARSHFIELD     CLOUDY    30  26  85 NW15      29.91R FOG     WCI  19
STEVENS POINT  CLOUDY    27  24  89 NW12G17   29.88R FOG     WCI  17
WAUPACA        CLOUDY    32  26  80 NW10      29.86R HAZE    WCI  23
WAUTOMA        CLOUDY    30  27  86 NW13G20   29.88R WCI  20
WISC RAPIDS    CLOUDY    30  25  81 NW13G22   29.92R WCI  20
CAMP DOUGLAS   NOT AVBL
$$

WIZ011>013-019>022-031-037>040-048>050-291500-
NORTHEAST WISCONSIN

CITY           SKY/WX    TMP DP  RH WIND       PRES   REMARKS
ANTIGO         CLOUDY    26  25  96 NW14      29.83R FOG     WCI  15
SHAWANO        CLOUDY    31  26  79 NW8       29.85R WCI  24
OCONTO         CLOUDY    30  26  84 MISG      29.82R
STURGEON BAY   CLOUDY    28  25  86 NW10      29.83R WCI  19
GREEN BAY      CLOUDY    30  25  81 NW15      29.83R HAZE    WCI  19
MANITOWOC      LGT SNOW  30  27  86 NW15G21   29.81R FOG     WCI  19
APPLETON       CLOUDY    28  25  86 NW12G21   29.84R FOG     WCI  18
CLINTONVILLE   CLOUDY    30  25  80 NW10G16   29.85R WCI  21
OSHKOSH        CLOUDY    30  24  78 NW16G24   29.84R HAZE    WCI  19
$$

WIZ032>034-041-042-053>061-291500-
SOUTHWEST WISCONSIN

CITY           SKY/WX    TMP DP  RH WIND       PRES   REMARKS
LA CROSSE      CLOUDY    34  29  82 NW14      29.98R WCI  25
SPARTA         CLOUDY    32  30  92 NW10G20   29.96R WCI  23
VIROQUA        CLOUDY    31  31 100 NW14G20   29.93R WCI  20
BOSCOBEL       CLOUDY    34  27  75 NW7       29.96R WCI  28
PRAIRIE DU CHI CLOUDY    33  28  81 NW13G23   29.96R WCI  24
PLATTEVILLE    CLOUDY    32  28  85 W13       29.91R WCI  22
$$

WIZ056-057-062-063-064-067-068-291500-
SOUTH CENTRAL WISCONSIN

CITY           SKY/WX    TMP DP  RH WIND       PRES   REMARKS
REEDSBURG      CLOUDY    30  27  87 NW14      29.90R WCI  19
BARABOO/DELLS  CLOUDY    30  26  85 NW12G20   29.89R WCI  20
LONE ROCK      NOT AVBL
MINERAL POINT  CLOUDY    32  28  86 NW17G23   29.89R WCI  21
MADISON        CLOUDY    31  25  78 NW12      29.87R WCI  22
MIDDLETON      CLOUDY    32  27  82 NW14G23   29.87R WCI  22
WATERTOWN      MIX PCPN  30  28  92 NW13      29.83R WCI  20
MONROE         FLURRIES  32  28  86 NW14G24   29.86R WCI  22
JANESVILLE     CLOUDY    34  28  80 NW13G21   29.85R WCI  25
$$

WIZ051-052-058>065-066-070>072-291500-
SOUTHEAST WISCONSIN

CITY           SKY/WX    TMP DP  RH WIND       PRES   REMARKS
MILWAUKEE      CLOUDY    33  25  72 NW16G24   29.80R HAZE    WCI  23
WAUKESHA       CLOUDY    28  27  93 NW16      29.82R WCI  17
MILWAUKEE/TIMM LGT SNOW  30  27  86 NW13G20   29.81R WCI  20
RACINE         CLOUDY    33  25  72 NW15G23   29.80R WCI  23
BURLINGTON     CLOUDY    30  26  84 NW15      29.80R WCI  19
KENOSHA        CLOUDY    33  27  78 NW12G21   29.79R WCI  24
FOND DU LAC    CLOUDY    30  24  78 NW14      29.84R HAZE    WCI  19
SHEBOYGAN      LGT SNOW  30  25  81 NW16      29.81R WCI  19
WEST BEND      CLOUDY    30  27  86 NW16G22   29.80R HAZE    WCI  19
JUNEAU         LGT SNOW  29  26  88 NW12G20   29.84R WCI  20
$$

LSZ147-162-291500-
LAKE SUPERIOR

STATION/POSITION TIME  TEMP    WIND        PRES    WAVE
                       AIR SEA DIR/SP/G            HT/PER
                 (UTC) (F)     (DEG/KT/KT) (MB)    (FT/S)
DEVILS ISLAND    1300   31     330/ 17/ 21 1015.3R
PORT WING        1311   31     320/ 21/ 25 1016.3R
SAXON HARBOR     1300   32     330/ 18/ 20 1014.2
$$

LMZ867-665-643>646-291500-
LAKE MICHIGAN

STATION/POSITION TIME  TEMP    WIND        PRES    WAVE
                       AIR SEA DIR/SP/G            HT/PER
                 (UTC) (F)     (DEG/KT/KT) (MB)    (FT/S)
NORTHPORT PIER   1300   30     310/  7/ 13 1008.8R
SISTER BAY       1213   29     340/  9/ 10   N/A
KEWAUNEE LAKESHO 1300   30     320/  8/ 14 1007.7R
SHEBOYGAN LAKESH 1300   32     330/ 14/ 17 1009.2R
PORT WASHINGTON  1340   32     320/ 13/ 20 1010.2R
MILWAUKEE LAKESH 1300   34     320/ 12/ 19   N/A
KENOSHA   LAKESH 1300   33     320/ 10/ 12 1008.1R
$$

TC  - TEMPERATURE IN CELSIUS
VSB - VISIBILITY IN STATUTE MILES
WCI - WIND CHILL INDEX
HX  - HEAT INDEX



USA.gov is the U.S. government's official web portal to all federal, state and local government web resources and services.